Погода в Фабричном

Россия / Свердловская область     58°05′32″N   63°45′50″E
темп.,
°C
ветер,
м/с
пор.,
м/с
влажн.,
%
обл.,
%
осадки,
мм/ч
давл.,
гПа
погр.,
м
23 апреля, пт
пт2323:00+9ю41156100 0.0 1031299
02:00+7ю3564100 0.0 1031104
05:00+6ю3769100 0.0 1031154
08:00+7ююз3766100 0.0 1032353
11:00+11ююз51049100 0.0 10311368
14:00+11ююз6958100 0.1 10311585
17:00+11юз4760100 0.3 10311375
20:00+9ююз2271100 0.3 103046
24 апреля, сб
сб2423:00+8юз1279100 0.4 103047
02:00+7ю2385100 0.0 102956
05:00+7вюв1291100 0.8 102872
08:00+8юв3576100 0.3 1027320
11:00+9юв3663100 0.7 1026757
14:00+11ююв4644100 0.1 10241799
17:00+9ююв5761100 0.1 10241224
20:00+7юв4771100 0.0 1023878
25 апреля, вс
вс2523:00+7вюв4866100 0.1 1022357
02:00+6в41167100 0.0 1020415
05:00+5вюв41066100 0.0 1019420
08:00+6вюв51061100 0.0 1018614
11:00+9вюв6950100 0.0 10161354
14:00+11вюв675497 0.0 10151385
17:00+12вюв6104899 0.0 10121883
20:00+9ююв5107392 0.1 1011707
26 апреля, пн
пн2623:00+8юв4980100 0.1 1009549
02:00+7ю3792100 0.9 1006926
05:00+6зюз61281100 1.8 10081081
08:00+6зюз714678 0.0 10101213
11:00+10зюз8124569 0.0 10112347
14:00+11зюз81237100 0.1 10113033
17:00+10зюз8134396 0.2 10122133
20:00+8зюз6124880 0.0 1013893
27 апреля, вт
вт2723:00+7зюз7135887 0.0 1013918
02:00+6юз613645 0.0 1013707
05:00+5юз513703 0.0 1013443
08:00+7зюз5106168 0.0 1013704
11:00+11зюз584258 0.0 10111712
14:00+14зюз463585 0.0 10092233
17:00+14зюз243395 0.0 10082178
20:00+11с014899 0.0 100717